Location: Ammerl�gen
(47.2167°N, 9.6000°E)
Time: 10:49:45
(UTC+00:00)

DMSP 5D-2 F13 DEB - Pass Details

Date: 24 October 2021
Orbit: 758 x 780 km, 98.7° (Epoch: 25 November)

Event Time Altitude Azimuth Distance (km) Brightness Sun altitude
Exits shadow 19:28:04 37° 328° (NNW) 1,184 ? -32.7°
Drops below altitude 10° 19:31:08 10° 340° (NNW) 2,304 ? -33.1°
Sets 19:33:28 0° 344° (NNW) 3,232 ? -33.5°
